Location: Bazugues
(43.4465°N, 0.3432°E)
Time: 14:41:43
(UTC+00:00)

Cosmos 1484 Rocket - Pass Details

Date: 12 January 2026
Orbit: 439 x 466 km, 97.6° (Epoch: 18 February)

Event Time Altitude Azimuth Distance (km) Brightness Sun altitude
Rises 17:29:14 0° 187° (S) 2,427 6.5 -8.2°
Reaches altitude 10° 17:31:25 10° 198° (SSW) 1,557 5.7 -8.5°
Maximum altitude 17:34:24 31° 262° (W) 810 4.6 -9.0°
Drops below altitude 10° 17:37:24 10° 327° (NNW) 1,562 5.3 -9.5°
Sets 17:39:36 0° 338° (NNW) 2,436 6.2 -9.9°
